UNITE (44031 NORAD) Tracking and Keplerian Element Data

This shows tracking and keplerian element data for the satellite.

Feedback or suggestion? Click here.




ElementValue
Catalog44031
NameUNITE
Epoch Orbit2528
Epoch Day193.72954993
Epoch Year2019
RAAN231.3532
Inclination51.638
Eccentricity0.0002737
Argument of Perigee232.3957
Mean Anonmoly127.6786
Mean Motion15.55893104
Decay Rate5.024E-05
L11 44031U 98067PX 19193.72954993 .00005024 00000-0 78009-4 0 9992
L22 44031 51.6380 231.3532 0002737 232.3957 127.6786 15.55893104 25281

Live tracking and technical data element details for UNITE (NORAD 44031). UNITE can be tracked NOW for your location showing map with azimuth and elevation plus other details from your city location.

Track the satellite on the map from your city or location and see movement details for azimuth, elevation, latitude, longitude, range, height, and movement on the map or in text.







IsCatalogInMostPopularTable: catalog: 44031, numindb: 67
Update: records affected: 1



GetName: 44031 UNITE

Hit Count: updated at: Tue, 16 Jul 2019 15:08:08 GMT